Time,TemperatureF,DewpointF,PressureIn,WindDirection,WindDirectionDegrees,WindSpeedMPH,WindSpeedGustMPH,Humidity,HourlyPrecipIn,Conditions,Clouds,dailyrainin,SolarRadiationWatts/m^2,SoftwareType,DateUTC
2013-07-21 00:07:00,76.0,70.0,29.92,East,86,0.0,0.0,82,0.00,,,0.00,0,weatherlink.com 1.10,2013-07-21 04:07:00,
2013-07-21 00:22:00,75.2,70.0,29.91,East,86,0.0,0.0,84,0.00,,,0.00,0,weatherlink.com 1.10,2013-07-21 04:22:00,
2013-07-21 00:37:00,75.7,71.0,29.92,East,86,0.0,0.0,84,0.00,,,0.00,0,weatherlink.com 1.10,2013-07-21 04:37:00,
2013-07-21 00:52:00,75.6,71.0,29.92,East,86,0.0,0.0,84,0.00,,,0.00,0,weatherlink.com 1.10,2013-07-21 04:52:00,
2013-07-21 01:07:00,75.9,70.0,29.93,East,86,0.0,0.0,83,0.00,,,0.00,0,weatherlink.com 1.10,2013-07-21 05:07:00,
2013-07-21 01:22:00,75.8,70.0,29.93,East,86,0.0,0.0,81,0.00,,,0.00,0,weatherlink.com 1.10,2013-07-21 05:22:00,
2013-07-21 01:37:00,75.2,71.0,29.93,East,86,0.0,0.0,85,0.00,,,0.00,0,weatherlink.com 1.10,2013-07-21 05:37:00,
2013-07-21 01:52:00,75.0,70.0,29.93,East,86,0.0,0.0,85,0.00,,,0.00,0,weatherlink.com 1.10,2013-07-21 05:52:00,
2013-07-21 02:07:00,74.8,70.0,29.93,East,86,0.0,0.0,85,0.00,,,0.00,0,weatherlink.com 1.10,2013-07-21 06:07:00,
2013-07-21 02:22:00,74.5,70.0,29.93,East,86,0.0,0.0,86,0.00,,,0.00,0,weatherlink.com 1.10,2013-07-21 06:22:00,
2013-07-21 02:37:00,75.3,71.0,29.93,East,86,0.0,0.0,85,0.00,,,0.00,0,weatherlink.com 1.10,2013-07-21 06:37:00,
2013-07-21 02:52:00,75.7,69.0,29.93,East,86,0.0,0.0,79,0.00,,,0.00,0,weatherlink.com 1.10,2013-07-21 06:52:00,
2013-07-21 03:07:00,75.2,69.0,29.92,East,86,0.0,1.0,81,0.00,,,0.00,0,weatherlink.com 1.10,2013-07-21 07:07:00,
2013-07-21 03:22:00,74.5,69.0,29.92,East,86,0.0,0.0,82,0.00,,,0.00,0,weatherlink.com 1.10,2013-07-21 07:22:00,
2013-07-21 03:37:00,74.7,69.0,29.93,East,86,0.0,0.0,82,0.00,,,0.00,0,weatherlink.com 1.10,2013-07-21 07:37:00,
2013-07-21 03:52:00,74.1,68.0,29.93,East,86,0.0,1.0,81,0.00,,,0.00,0,weatherlink.com 1.10,2013-07-21 07:52:00,
2013-07-21 04:07:00,73.5,67.0,29.93,East,86,0.0,1.0,81,0.00,,,0.00,0,weatherlink.com 1.10,2013-07-21 08:07:00,
2013-07-21 04:23:00,73.0,66.0,29.93,East,86,0.0,1.0,78,0.00,,,0.00,0,weatherlink.com 1.10,2013-07-21 08:23:00,
2013-07-21 04:38:00,72.8,64.0,29.93,East,86,0.0,1.0,75,0.00,,,0.00,0,weatherlink.com 1.10,2013-07-21 08:38:00,
2013-07-21 04:53:00,72.9,63.0,29.94,NNW,343,0.0,0.0,72,0.00,,,0.00,0,weatherlink.com 1.10,2013-07-21 08:53:00,
2013-07-21 05:08:00,72.5,64.0,29.95,NNE,19,0.0,1.0,75,0.00,,,0.00,0,weatherlink.com 1.10,2013-07-21 09:08:00,
2013-07-21 05:24:00,72.1,64.0,29.95,ENE,77,0.0,1.0,76,0.00,,,0.00,0,weatherlink.com 1.10,2013-07-21 09:24:00,
2013-07-21 05:38:00,71.6,64.0,29.96,NNE,15,0.0,3.0,77,0.00,,,0.00,0,weatherlink.com 1.10,2013-07-21 09:38:00,
2013-07-21 05:53:00,71.8,64.0,29.97,NE,55,0.0,2.0,75,0.00,,,0.00,0,weatherlink.com 1.10,2013-07-21 09:53:00,
2013-07-21 06:08:00,71.8,64.0,29.97,East,94,3.0,6.0,75,0.00,,,0.00,0,weatherlink.com 1.10,2013-07-21 10:08:00,
2013-07-21 06:23:00,71.3,63.0,29.97,ENE,69,0.0,5.0,74,0.00,,,0.00,18,weatherlink.com 1.10,2013-07-21 10:23:00,
2013-07-21 06:38:00,70.8,63.0,29.98,North,5,0.0,2.0,76,0.00,,,0.00,72,weatherlink.com 1.10,2013-07-21 10:38:00,
2013-07-21 06:53:00,70.6,63.0,29.97,East,93,0.0,1.0,77,0.00,,,0.00,42,weatherlink.com 1.10,2013-07-21 10:53:00,
2013-07-21 07:08:00,70.2,63.0,29.97,NE,42,0.0,1.0,78,0.00,,,0.00,139,weatherlink.com 1.10,2013-07-21 11:08:00,
2013-07-21 07:23:00,70.8,64.0,29.98,ENE,63,1.0,2.0,78,0.00,,,0.00,169,weatherlink.com 1.10,2013-07-21 11:23:00,
2013-07-21 07:38:00,71.6,64.0,29.98,East,82,0.0,2.0,77,0.00,,,0.00,141,weatherlink.com 1.10,2013-07-21 11:38:00,
2013-07-21 07:53:00,72.0,65.0,29.99,ENE,63,0.0,2.0,79,0.00,,,0.00,141,weatherlink.com 1.10,2013-07-21 11:53:00,
2013-07-21 08:08:00,73.1,66.0,30.00,NE,56,0.0,1.0,77,0.00,,,0.00,185,weatherlink.com 1.10,2013-07-21 12:08:00,
2013-07-21 08:23:00,73.2,64.0,30.00,ENE,57,0.0,2.0,74,0.00,,,0.00,155,weatherlink.com 1.10,2013-07-21 12:23:00,
2013-07-21 08:38:00,75.1,67.0,30.00,ENE,57,1.0,2.0,75,0.00,,,0.00,547,weatherlink.com 1.10,2013-07-21 12:38:00,
2013-07-21 08:53:00,74.8,65.0,30.00,ENE,74,0.0,4.0,71,0.00,,,0.00,253,weatherlink.com 1.10,2013-07-21 12:53:00,
2013-07-21 09:08:00,74.6,64.0,30.01,ENE,67,1.0,4.0,70,0.00,,,0.00,197,weatherlink.com 1.10,2013-07-21 13:08:00,
2013-07-21 09:23:00,73.2,64.0,30.01,NE,48,0.0,3.0,74,0.00,,,0.00,135,weatherlink.com 1.10,2013-07-21 13:23:00,
2013-07-21 09:38:00,73.0,65.0,30.00,ENE,76,0.0,2.0,76,0.00,,,0.00,163,weatherlink.com 1.10,2013-07-21 13:38:00,
2013-07-21 09:53:00,73.8,67.0,30.01,East,83,0.0,2.0,78,0.00,,,0.00,573,weatherlink.com 1.10,2013-07-21 13:53:00,
2013-07-21 10:08:00,75.6,64.0,30.01,East,82,0.0,5.0,68,0.00,,,0.00,209,weatherlink.com 1.10,2013-07-21 14:08:00,
2013-07-21 10:23:00,78.6,66.0,30.01,ENE,61,0.0,6.0,66,0.00,,,0.00,691,weatherlink.com 1.10,2013-07-21 14:23:00,
2013-07-21 10:38:00,80.5,66.0,30.02,West,271,0.0,5.0,62,0.00,,,0.00,773,weatherlink.com 1.10,2013-07-21 14:38:00,
2013-07-21 10:53:00,82.9,68.0,30.02,NE,40,1.0,4.0,60,0.00,,,0.00,805,weatherlink.com 1.10,2013-07-21 14:53:00,
2013-07-21 11:08:00,80.5,66.0,30.02,ESE,120,1.0,5.0,62,0.00,,,0.00,309,weatherlink.com 1.10,2013-07-21 15:08:00,
2013-07-21 11:23:00,81.1,65.0,30.02,NNE,32,2.0,4.0,58,0.00,,,0.00,758,weatherlink.com 1.10,2013-07-21 15:23:00,
2013-07-21 11:38:00,81.8,66.0,30.02,SE,139,0.0,8.0,59,0.00,,,0.00,810,weatherlink.com 1.10,2013-07-21 15:38:00,
2013-07-21 11:54:00,82.7,64.0,30.02,East,90,2.0,11.0,53,0.00,,,0.00,837,weatherlink.com 1.10,2013-07-21 15:54:00,
2013-07-21 12:09:00,83.1,65.0,30.02,East,89,6.0,6.0,54,0.00,,,0.00,847,weatherlink.com 1.10,2013-07-21 16:09:00,
2013-07-21 12:24:00,84.4,66.0,30.02,NE,42,0.0,4.0,54,0.00,,,0.00,1071,weatherlink.com 1.10,2013-07-21 16:24:00,
2013-07-21 12:39:00,84.5,64.0,30.02,North,5,0.0,8.0,51,0.00,,,0.00,489,weatherlink.com 1.10,2013-07-21 16:39:00,
2013-07-21 12:54:00,84.4,65.0,30.02,NNE,22,1.0,5.0,52,0.00,,,0.00,893,weatherlink.com 1.10,2013-07-21 16:54:00,
2013-07-21 13:09:00,84.5,65.0,30.02,NE,55,1.0,3.0,52,0.00,,,0.00,1004,weatherlink.com 1.10,2013-07-21 17:09:00,
2013-07-21 13:24:00,83.2,64.0,30.02,ENE,63,0.0,3.0,53,0.00,,,0.00,566,weatherlink.com 1.10,2013-07-21 17:24:00,
2013-07-21 13:39:00,83.3,66.0,30.02,East,86,1.0,3.0,56,0.00,,,0.00,682,weatherlink.com 1.10,2013-07-21 17:39:00,
2013-07-21 13:54:00,83.7,68.0,30.02,NNE,32,0.0,6.0,60,0.00,,,0.00,833,weatherlink.com 1.10,2013-07-21 17:54:00,
2013-07-21 14:09:00,83.6,68.0,30.02,West,261,0.0,3.0,60,0.00,,,0.00,527,weatherlink.com 1.10,2013-07-21 18:09:00,
2013-07-21 14:24:00,84.3,70.0,30.02,NE,41,0.0,7.0,63,0.00,,,0.00,1021,weatherlink.com 1.10,2013-07-21 18:24:00,
2013-07-21 14:39:00,84.8,68.0,30.02,ESE,119,0.0,3.0,57,0.00,,,0.00,717,weatherlink.com 1.10,2013-07-21 18:39:00,
2013-07-21 14:54:00,81.7,68.0,30.02,East,98,0.0,5.0,63,0.00,,,0.00,359,weatherlink.com 1.10,2013-07-21 18:54:00,
2013-07-21 15:09:00,81.8,67.0,30.02,SE,126,0.0,4.0,62,0.00,,,0.00,369,weatherlink.com 1.10,2013-07-21 19:09:00,
2013-07-21 15:24:00,80.9,67.0,30.02,NE,50,0.0,3.0,62,0.00,,,0.00,362,weatherlink.com 1.10,2013-07-21 19:24:00,
2013-07-21 15:54:00,82.8,67.0,30.02,SW,219,0.0,3.0,60,0.00,,,0.00,816,weatherlink.com 1.10,2013-07-21 19:54:00,
2013-07-21 16:09:00,82.5,66.0,30.02,NNW,339,0.0,1.0,57,0.00,,,0.00,661,weatherlink.com 1.10,2013-07-21 20:09:00,
2013-07-21 16:24:00,82.3,64.0,30.02,WNW,302,0.0,2.0,54,0.00,,,0.00,619,weatherlink.com 1.10,2013-07-21 20:24:00,
2013-07-21 16:39:00,81.5,64.0,30.01,SSE,150,0.0,3.0,56,0.00,,,0.00,606,weatherlink.com 1.10,2013-07-21 20:39:00,
2013-07-21 16:54:00,80.8,64.0,30.01,ESE,105,1.0,2.0,57,0.00,,,0.00,216,weatherlink.com 1.10,2013-07-21 20:54:00,
2013-07-21 17:09:00,80.7,63.0,30.01,SE,144,0.0,2.0,55,0.00,,,0.00,76,weatherlink.com 1.10,2013-07-21 21:09:00,
2013-07-21 17:24:00,80.2,63.0,30.00,NE,34,0.0,5.0,55,0.00,,,0.00,76,weatherlink.com 1.10,2013-07-21 21:24:00,
2013-07-21 17:39:00,80.2,63.0,30.00,ENE,69,0.0,3.0,57,0.00,,,0.00,102,weatherlink.com 1.10,2013-07-21 21:39:00,
2013-07-21 17:54:00,80.2,64.0,30.00,East,88,0.0,3.0,58,0.00,,,0.00,72,weatherlink.com 1.10,2013-07-21 21:54:00,
2013-07-21 18:09:00,80.3,63.0,30.00,ESE,103,0.0,5.0,56,0.00,,,0.00,83,weatherlink.com 1.10,2013-07-21 22:09:00,
2013-07-21 18:24:00,79.5,65.0,30.00,ESE,119,0.0,3.0,61,0.00,,,0.00,77,weatherlink.com 1.10,2013-07-21 22:24:00,
2013-07-21 18:39:00,78.4,65.0,30.00,ESE,117,0.0,1.0,64,0.00,,,0.00,86,weatherlink.com 1.10,2013-07-21 22:39:00,
2013-07-21 18:54:00,77.9,64.0,30.00,East,95,0.0,2.0,63,0.00,,,0.00,58,weatherlink.com 1.10,2013-07-21 22:54:00,
2013-07-21 19:09:00,77.5,64.0,30.00,ENE,72,0.0,3.0,64,0.00,,,0.00,54,weatherlink.com 1.10,2013-07-21 23:09:00,
2013-07-21 19:24:00,76.9,65.0,30.01,East,86,0.0,0.0,66,0.00,,,0.00,46,weatherlink.com 1.10,2013-07-21 23:24:00,
2013-07-21 19:39:00,76.4,64.0,30.01,East,85,0.0,2.0,66,0.00,,,0.00,37,weatherlink.com 1.10,2013-07-21 23:39:00,
2013-07-21 19:54:00,75.9,63.0,30.00,East,85,0.0,1.0,65,0.00,,,0.00,28,weatherlink.com 1.10,2013-07-21 23:54:00,
2013-07-21 20:09:00,75.2,63.0,30.00,East,85,0.0,1.0,67,0.00,,,0.00,7,weatherlink.com 1.10,2013-07-22 00:09:00,
2013-07-21 20:24:00,74.8,64.0,30.01,East,85,0.0,0.0,68,0.00,,,0.00,0,weatherlink.com 1.10,2013-07-22 00:24:00,
2013-07-21 20:39:00,74.0,63.0,30.02,East,85,0.0,0.0,69,0.00,,,0.00,0,weatherlink.com 1.10,2013-07-22 00:39:00,
2013-07-21 20:54:00,73.9,63.0,30.03,East,85,0.0,1.0,69,0.00,,,0.00,0,weatherlink.com 1.10,2013-07-22 00:54:00,
2013-07-21 21:09:00,73.6,63.0,30.03,East,85,0.0,0.0,69,0.00,,,0.00,0,weatherlink.com 1.10,2013-07-22 01:09:00,
2013-07-21 21:24:00,73.2,62.0,30.04,East,85,0.0,0.0,69,0.00,,,0.00,0,weatherlink.com 1.10,2013-07-22 01:24:00,
2013-07-21 21:39:00,72.4,63.0,30.04,East,85,0.0,0.0,72,0.00,,,0.00,0,weatherlink.com 1.10,2013-07-22 01:39:00,
2013-07-21 21:54:00,72.1,62.0,30.04,East,85,0.0,0.0,71,0.00,,,0.00,0,weatherlink.com 1.10,2013-07-22 01:54:00,
2013-07-21 22:09:00,71.6,63.0,30.04,East,85,0.0,1.0,75,0.00,,,0.00,0,weatherlink.com 1.10,2013-07-22 02:09:00,
2013-07-21 22:24:00,71.3,63.0,30.04,East,85,0.0,0.0,76,0.00,,,0.00,0,weatherlink.com 1.10,2013-07-22 02:24:00,
2013-07-21 22:39:00,71.7,64.0,30.04,East,85,0.0,0.0,77,0.00,,,0.00,0,weatherlink.com 1.10,2013-07-22 02:39:00,
2013-07-21 22:54:00,71.5,65.0,30.04,East,85,0.0,0.0,80,0.00,,,0.00,0,weatherlink.com 1.10,2013-07-22 02:54:00,
2013-07-21 23:09:00,71.5,65.0,30.05,East,85,0.0,0.0,81,0.00,,,0.00,0,weatherlink.com 1.10,2013-07-22 03:09:00,
2013-07-21 23:24:00,71.2,66.0,30.04,East,85,0.0,1.0,82,0.00,,,0.00,0,weatherlink.com 1.10,2013-07-22 03:24:00,
2013-07-21 23:54:00,71.7,66.0,30.04,East,85,0.0,0.0,82,0.00,,,0.00,0,weatherlink.com 1.10,2013-07-22 03:54:00,